Regional Weather Roundup
Issued by NWS

Home | Current Version | Previous Version | Graphics & Text | Print | Product List | Glossary On
Versions: 1 2 3 4 5 6 7 8 9 10 11 12 13 14 15 16 17 18 19 20 21 22 23 24 25 26 27 28 29 30 31 32 33 34 35 36 37 38 39 40 41 42 43 44 45 46 47 48 49 50
000
ASUS43 KIND 252309
RWRIN

WEATHER ROUNDUP FOR INDIANA
NATIONAL WEATHER SERVICE INDIANAPOLIS IN
700 PM EDT MON SEP 25 2017

NOTE: "FAIR" INDICATES FEW OR NO CLOUDS BELOW 12,000 FEET WITH NO
SIGNIFICANT WEATHER AND/OR OBSTRUCTIONS TO VISIBILITY.

* - STATION DOES NOT REPORT WEATHER SUCH AS PRECIPITATION OR FOG.

+ - STATION NOT QUALITY CONTROLLED BY THE NATIONAL WEATHER SERVICE.
    USE DATA WITH CAUTION...ESPECIALLY DEWPOINT AND RELATIVE
    HUMIDITY OBSERVATIONS.

INZ001>003-010>013-019-020-260000-
NORTHWEST INDIANA

CITY           SKY/WX    TMP DP  RH WIND       PRES   REMARKS
GARY /AIRPORT/ PTCLDY    88  46  23 SE10      29.94S
KNOX *+        CLEAR     86  55  35 SE3       29.95S
LA PORTE +     CLEAR     85  55  36 SE5       29.96S
MICHIGAN CITY+ CLEAR     81  55  41 CALM      29.96S
MONTICELLO +   CLEAR     83  61  47 CALM      29.94S
RENSSELAER +   CLEAR     86  37  17 E8        29.94S
VALPARAISO     CLEAR     87  55  33 SE7       29.95S

$$

LMZ046-743>745-260000-
SOUTHERN LAKE MICHIGAN

STATION/POSITION TIME  TEMP    WIND        PRES    WAVE
                       AIR SEA DIR/SP/G            HT
                 (UTC) (F)     (DEG/KT/KT) (MB)    (FT)
BURNS HARBOR     2300   78      90/  7/ 12 1014.2
MICHIGAN CITY    2240   86     100/  5/  6   N/A
5NW MICH CITY    2300   77 74   90/  6/  8   N/A     0

$$

INZ004-005-014>016-021>024-260000-
NORTH CENTRAL INDIANA

CITY           SKY/WX    TMP DP  RH WIND       PRES   REMARKS
ELKHART        PTCLDY    84  57  39 CALM      29.96F
GOSHEN         CLEAR     84  55  36 S5        29.97S
LOGANSPORT +   CLEAR     81  55  41 SE5       29.96S
PERU/GRISSOM   CLEAR     85  59  40 S3        29.95F
SOUTH BEND     PTCLDY    85  54  34 SE8       29.96F
WARSAW +       CLEAR     81  61  50 CALM      29.97S

$$

INZ006>009-017-018-025>027-260000-
NORTHEAST INDIANA

CITY           SKY/WX    TMP DP  RH WIND       PRES   REMARKS
AUBURN +       CLEAR     81  63  54 CALM      29.98S
FORT WAYNE     PTCLDY    84  61  45 SE3       29.97F
HUNTINGTON +   CLEAR     84  61  45 CALM      29.96S
KENDALLVILLE + CLEAR     82  65  56 CALM      29.98F

$$

INZ028-029-035-036-043>045-051>053-260000-
WEST CENTRAL INDIANA

CITY           SKY/WX    TMP DP  RH WIND       PRES   REMARKS
GREENCASTLE +  CLEAR     82  61  47 CALM      29.96S
LAFAYETTE      CLEAR     83  61  47 E3        29.93S
TERRE HAUTE    CLEAR     87  59  38 S6        29.93F

$$

INZ030>032-037>040-046>048-054>057-064-065-260000-
CENTRAL INDIANA

CITY           SKY/WX    TMP DP  RH WIND       PRES   REMARKS
CP ATTERBURY + CLEAR     82  63  51 CALM      29.96F
COLUMBUS       PTCLDY    84  54  34 CALM      29.96F
FISHERS *+     CLEAR     82  64  54 CALM      29.96S
FRANKFORT +    CLOUDY    86  61  43 SE3       29.97S
GREENWOOD *+   CLEAR     89  61  38 S5        29.97S
INDIANAPOLIS   PTCLDY    85  58  39 SE7       29.96S
-EAGLE CREEK   CLEAR     87  56  34 S6        29.95S
KOKOMO +       CLEAR     82  63  52 SE6       29.97F
MARION +       CLEAR     82  59  44 S5        29.97F
MT COMFORT *+  CLEAR     86  57  37 CALM      29.98S
SHELBYVILLE    PTCLDY    87  58  37 CALM      29.95F
ZIONSVILLE +   CLEAR     83  58  42 CALM      29.97S

$$

INZ033-034-041-042-049-050-058-059-260000-
EAST CENTRAL INDIANA

CITY           SKY/WX    TMP DP  RH WIND       PRES   REMARKS
MUNCIE         CLEAR     86  58  38 SE7       29.97F
RICHMOND +     CLOUDY    81  61  50 SW3       30.00S

$$

INZ060-061-067>069-081>083-085>088-260000-
SOUTHWEST INDIANA

CITY           SKY/WX    TMP DP  RH WIND       PRES   REMARKS
EVANSVILLE     CLEAR     86  63  45 SE5       29.94S
HUNTINGBURG +  PTCLDY    85  67  54 SE6       29.95S
WASHINGTON +   CLEAR     87  59  39 S6        29.93S

$$

INZ062-063-066-070>080-084-089>092-260000-
SOUTH CENTRAL AND SOUTHEAST INDIANA

CITY           SKY/WX    TMP DP  RH WIND       PRES   REMARKS
BEDFORD +      CLEAR     84  63  48 CALM      29.95S
BLOOMINGTON    CLEAR     86  60  41 SE6       29.96S
MADISON *+     PTCLDY    82  63  51 SE3       29.99S
NORTH VERNON + PTCLDY    84  66  54 CALM      29.97F
SEYMOUR +      PTCLDY    86  64  48 SE3       29.96S

$$





USA.gov is the U.S. government's official web portal to all federal, state and local government web resources and services.